This is the latest recevied weather packets stored in our database for station/object N5COP-13. If no packets are shown the sender has not sent any weather packets the latest 10 day(s).
| Time | Temp. | Humidity | Pressure | Rain* | Wind** | Luminosity | Snow |
|---|---|---|---|---|---|---|---|
| 1778079214 | 8.89° C | 69% | 1016.4 hPa | 0 mm | - | 493 W/m² | - |
| 1778078912 | 8.89° C | 70% | 1016.5 hPa | 0 mm | - | 490 W/m² | - |
| 1778078608 | 7.78° C | 71% | 1016.2 hPa | 0 mm | - | 469 W/m² | - |
| 1778078307 | 8.33° C | 71% | 1016.4 hPa | 0 mm | - | 192 W/m² | - |
| 1778078003 | 7.78° C | 72% | 1016.2 hPa | 0 mm | - | 427 W/m² | - |
| 1778077702 | 7.78° C | 72% | 1016.4 hPa | 0 mm | - | 386 W/m² | - |
| 1778077400 | 7.78° C | 73% | 1016.1 hPa | 0 mm | - | 366 W/m² | - |
| 1778077097 | 7.22° C | 74% | 1016 hPa | 0 mm | - | 204 W/m² | - |
| 1778076795 | 6.67° C | 74% | 1016 hPa | 0 mm | - | 185 W/m² | - |
| 1778076494 | 6.67° C | 74% | 1016 hPa | 0 mm | - | 166 W/m² | - |
| 1778076190 | 6.67° C | 75% | 1016.1 hPa | 0 mm | - | 243 W/m² | - |
| 1778075888 | 6.67° C | 76% | 1016.2 hPa | 0 mm | - | 131 W/m² | - |
| 1778075583 | 6.67° C | 76% | 1016 hPa | 0 mm | - | 179 W/m² | - |
| 1778075280 | 6.67° C | 77% | 1015.9 hPa | 0 mm | - | 216 W/m² | - |
| 1778074976 | 6.67° C | 78% | 1015.9 hPa | 0 mm | - | 242 W/m² | - |
| 1778074674 | 6.11° C | 78% | 1015.6 hPa | 0 mm | - | 124 W/m² | - |
| 1778074371 | 6.11° C | 78% | 1015.9 hPa | 0 mm | - | 141 W/m² | - |
| 1778074066 | 6.11° C | 78% | 1015.6 hPa | 0 mm | - | 104 W/m² | - |
| 1778073764 | 6.11° C | 78% | 1015.9 hPa | 0 mm | - | 88 W/m² | - |
| 1778073462 | 6.11° C | 79% | 1016.1 hPa | 0 mm | - | 82 W/m² | - |
| 1778073157 | 5.56° C | 80% | 1016.2 hPa | 0 mm | - | 65 W/m² | - |
| 1778072854 | 5.56° C | 81% | 1016.1 hPa | 0 mm | - | 50 W/m² | - |
| 1778072551 | 5.56° C | 81% | 1016.2 hPa | 0 mm | - | 41 W/m² | - |
| 1778072249 | 5.56° C | 82% | 1016.4 hPa | 0 mm | - | 36 W/m² | - |
| 1778071947 | 5.56° C | 83% | 1016.3 hPa | 0 mm | - | 30 W/m² | - |
* Rain latest hour (hover to see other rain measurements)
** Current wind speed in m/s (hover to see current wind gust speed)